VLG8714 LEBL-LOWW

Flight info

Callsign VLG8714
Flight time 1h 46m
Altitude 30000
Route AGENA DCT BODEQ DCT LUMAS DCT UNANA DCT STP DCT RAPED DCT PIGOS DCT EKSID DCT NOSTA DCT NOPMU/N0440F360 DCT KOXUD DCT BORMI DCT MALUG/N0441F350 DCT ARALD DCT ABTAN ABTAN2W
Aircraft A21N/M-SDE2E3FGHIRWXY/LB1

Departure

Time 2026-05-06 05:54
Airport Josep Tarradellas Barcelona-El Prat Airport (LEBL)

Arrival

Time 2026-05-06 07:40
Airport Vienna International Airport (LOWW)
Time Latitude Longitude Altitude Speed Heading
2026-05-06 05:39 41.30129 2.07716 24 ft 0 kts 17°
2026-05-06 05:45 41.30123 2.07713 2 ft 2 kts 15°
2026-05-06 05:45 41.30107 2.07708 13 ft 2 kts
2026-05-06 05:45 41.30091 2.07706 34 ft 2 kts 360°
2026-05-06 05:46 41.30074 2.07709 26 ft 2 kts 340°
2026-05-06 05:46 41.30061 2.07721 23 ft 2 kts 300°
2026-05-06 05:46 41.30058 2.07739 24 ft 1 kts 257°
2026-05-06 05:46 41.30058 2.07742 24 ft 0 kts 251°
2026-05-06 05:48 41.30057 2.07739 24 ft 2 kts 251°
2026-05-06 05:48 41.30034 2.07700 21 ft 10 kts 208°
2026-05-06 05:49 41.29932 2.07715 19 ft 18 kts 199°
2026-05-06 05:49 41.29867 2.07587 19 ft 17 kts 246°
2026-05-06 05:49 41.29815 2.07437 20 ft 20 kts 245°
2026-05-06 05:49 41.29751 2.07250 19 ft 24 kts 245°
2026-05-06 05:50 41.29676 2.07030 20 ft 28 kts 246°
2026-05-06 05:50 41.29595 2.06796 19 ft 28 kts 245°
2026-05-06 05:50 41.29518 2.06569 20 ft 19 kts 246°
2026-05-06 05:50 41.29466 2.06418 19 ft 18 kts 245°
2026-05-06 05:51 41.29411 2.06267 18 ft 18 kts 237°
2026-05-06 05:51 41.29307 2.06245 19 ft 17 kts 154°
2026-05-06 05:51 41.29191 2.06316 19 ft 19 kts 156°
2026-05-06 05:51 41.29093 2.06448 18 ft 22 kts 108°
2026-05-06 05:52 41.29070 2.06564 19 ft 2 kts 75°
2026-05-06 05:52 41.29102 2.06583 19 ft 9 kts 345°
2026-05-06 05:52 41.29156 2.06491 19 ft 17 kts 302°
2026-05-06 05:52 41.29247 2.06482 18 ft 16 kts 59°
2026-05-06 05:53 41.29304 2.06670 18 ft 38 kts 65°
2026-05-06 05:53 41.29508 2.07264 21 ft 103 kts 65°
2026-05-06 05:53 41.29888 2.08393 30 ft 165 kts 64°
2026-05-06 05:53 41.30393 2.09901 273 ft 187 kts 62°
2026-05-06 05:54 41.30944 2.11507 773 ft 195 kts 65°
2026-05-06 05:54 41.31481 2.13182 1404 ft 193 kts 64°
2026-05-06 05:54 41.32041 2.14801 2054 ft 201 kts 63°
2026-05-06 05:54 41.32670 2.16612 2393 ft 230 kts 65°
2026-05-06 05:55 41.33054 2.18830 2700 ft 262 kts 82°
2026-05-06 05:55 41.33248 2.21311 3387 ft 275 kts 82°
2026-05-06 05:55 41.33450 2.23874 4285 ft 280 kts 83°
2026-05-06 05:55 41.33661 2.26426 5256 ft 283 kts 83°
2026-05-06 05:56 41.33882 2.29014 6216 ft 287 kts 84°
2026-05-06 05:56 41.34116 2.31709 7064 ft 292 kts 84°
2026-05-06 05:56 41.34353 2.34421 7893 ft 298 kts 84°
2026-05-06 05:56 41.34594 2.37164 8725 ft 303 kts 84°
2026-05-06 05:57 41.34841 2.39970 9582 ft 308 kts 84°
2026-05-06 05:57 41.35092 2.42827 10306 ft 317 kts 84°
2026-05-06 05:57 41.35354 2.45818 10635 ft 340 kts 83°
2026-05-06 05:57 41.35636 2.49043 10934 ft 362 kts 83°
2026-05-06 05:58 41.35930 2.52408 11352 ft 378 kts 83°
2026-05-06 05:58 41.36235 2.55913 12046 ft 385 kts 83°
2026-05-06 05:58 41.36548 2.59481 12849 ft 390 kts 82°
2026-05-06 05:58 41.37101 2.63032 13649 ft 394 kts 74°
2026-05-06 05:59 41.37860 2.66548 14338 ft 399 kts 72°
2026-05-06 05:59 41.38670 2.70123 14929 ft 407 kts 73°
2026-05-06 05:59 41.39496 2.73766 15521 ft 414 kts 73°
2026-05-06 05:59 41.40319 2.77421 16088 ft 421 kts 73°
2026-05-06 06:00 41.41162 2.81185 16686 ft 428 kts 73°
2026-05-06 06:00 41.42016 2.85014 17261 ft 434 kts 73°
2026-05-06 06:00 41.42881 2.88902 17827 ft 441 kts 73°
2026-05-06 06:00 41.43754 2.92837 18364 ft 447 kts 73°
2026-05-06 06:01 41.44641 2.96840 18862 ft 452 kts 74°
2026-05-06 06:01 41.45532 3.00875 19383 ft 456 kts 74°
2026-05-06 06:01 41.46430 3.04946 19895 ft 460 kts 74°
2026-05-06 06:01 41.47336 3.09059 20312 ft 466 kts 74°
2026-05-06 06:02 41.48240 3.13172 20799 ft 470 kts 75°
2026-05-06 06:02 41.49158 3.17363 21308 ft 473 kts 75°
2026-05-06 06:02 41.49973 3.21627 21810 ft 476 kts 78°
2026-05-06 06:02 41.50701 3.25952 22313 ft 479 kts 79°
2026-05-06 06:03 41.51420 3.30311 22807 ft 483 kts 79°
2026-05-06 06:03 41.52146 3.34711 23222 ft 489 kts 79°
2026-05-06 06:03 41.52884 3.39178 23591 ft 495 kts 79°
2026-05-06 06:03 41.53628 3.43670 23989 ft 498 kts 79°
2026-05-06 06:04 41.54376 3.48191 24410 ft 500 kts 79°
2026-05-06 06:04 41.55115 3.52668 24800 ft 502 kts 79°
2026-05-06 06:04 41.55867 3.57235 25184 ft 505 kts 79°
2026-05-06 06:04 41.56621 3.61822 25564 ft 507 kts 79°
2026-05-06 06:05 41.57375 3.66426 25929 ft 509 kts 80°
2026-05-06 06:05 41.58132 3.71065 26288 ft 512 kts 80°
2026-05-06 06:05 41.58890 3.75715 26641 ft 514 kts 80°
2026-05-06 06:05 41.59650 3.80394 26978 ft 516 kts 80°
2026-05-06 06:06 41.60411 3.85089 27334 ft 517 kts 80°
2026-05-06 06:06 41.61172 3.89791 27690 ft 519 kts 80°
2026-05-06 06:06 41.61924 3.94443 28119 ft 518 kts 81°
2026-05-06 06:06 41.62682 3.99146 28568 ft 517 kts 81°
2026-05-06 06:07 41.63436 4.03835 28998 ft 516 kts 81°
2026-05-06 06:07 41.64187 4.08520 29416 ft 516 kts 81°
2026-05-06 06:07 41.64938 4.13215 29817 ft 515 kts 81°
2026-05-06 06:07 41.65686 4.17914 29941 ft 516 kts 81°
2026-05-06 06:08 41.67175 4.27292 29941 ft 516 kts 82°
2026-05-06 06:08 41.68647 4.36629 29944 ft 516 kts 82°
2026-05-06 06:09 41.70120 4.46017 29942 ft 516 kts 81°
2026-05-06 06:09 41.71585 4.55408 29941 ft 516 kts 81°
2026-05-06 06:10 41.73586 4.64647 29934 ft 521 kts 66°
2026-05-06 06:10 41.75391 4.68780 29936 ft 523 kts 53°
2026-05-06 06:10 41.77746 4.72498 29935 ft 523 kts 47°
2026-05-06 06:11 41.82841 4.79466 29939 ft 524 kts 43°
2026-05-06 06:11 41.88072 4.86248 29936 ft 524 kts 43°
2026-05-06 06:12 41.93294 4.93066 29933 ft 523 kts 43°
2026-05-06 06:12 41.98445 4.99879 29938 ft 525 kts 44°
2026-05-06 06:13 42.03641 5.06806 29923 ft 526 kts 44°
2026-05-06 06:13 42.08830 5.13744 29967 ft 526 kts 44°
2026-05-06 06:14 42.14009 5.20684 29928 ft 525 kts 44°
2026-05-06 06:14 42.19142 5.27575 29923 ft 524 kts 44°
2026-05-06 06:15 42.24305 5.34522 29891 ft 525 kts 44°
2026-05-06 06:15 42.29485 5.41508 29931 ft 527 kts 44°
2026-05-06 06:16 42.34659 5.48507 29911 ft 527 kts 44°
2026-05-06 06:16 42.39839 5.55530 29912 ft 527 kts 44°
2026-05-06 06:17 42.44969 5.62502 29914 ft 527 kts 44°
2026-05-06 06:17 42.50134 5.69539 29907 ft 526 kts 44°
2026-05-06 06:18 42.55293 5.76583 29903 ft 527 kts 45°
2026-05-06 06:18 42.60460 5.83658 29903 ft 528 kts 45°
2026-05-06 06:19 42.65589 5.90699 29901 ft 528 kts 45°
2026-05-06 06:19 42.70754 5.97805 29892 ft 528 kts 45°
2026-05-06 06:20 42.75909 6.04917 29892 ft 528 kts 45°
2026-05-06 06:20 42.81066 6.12049 29885 ft 529 kts 45°
2026-05-06 06:21 42.86315 6.18972 29903 ft 529 kts 40°
2026-05-06 06:21 42.91882 6.25519 29881 ft 529 kts 39°
2026-05-06 06:22 42.97520 6.31988 29881 ft 529 kts 39°
2026-05-06 06:22 43.03161 6.38447 29880 ft 529 kts 39°
2026-05-06 06:23 43.08744 6.44871 29876 ft 528 kts 39°
2026-05-06 06:23 43.14356 6.51356 29873 ft 528 kts 39°
2026-05-06 06:24 43.19967 6.57878 29871 ft 529 kts 41°
2026-05-06 06:24 43.22493 6.61537 29863 ft 528 kts 52°
2026-05-06 06:24 43.24768 6.65487 29881 ft 528 kts 54°
2026-05-06 06:25 43.29104 6.73519 29871 ft 527 kts 56°
2026-05-06 06:26 43.35504 6.85784 29844 ft 527 kts 56°
2026-05-06 06:26 43.39783 6.93974 29880 ft 528 kts 56°
2026-05-06 06:27 43.44068 7.02162 29884 ft 527 kts 56°
2026-05-06 06:27 43.48316 7.10294 29881 ft 526 kts 56°
2026-05-06 06:28 43.52585 7.18488 29875 ft 526 kts 56°
2026-05-06 06:28 43.56845 7.26690 29868 ft 526 kts 56°
2026-05-06 06:29 43.61101 7.34908 29868 ft 526 kts 56°
2026-05-06 06:29 43.65308 7.43054 29856 ft 526 kts 56°
2026-05-06 06:30 43.69505 7.51204 29855 ft 526 kts 56°
2026-05-06 06:30 43.73729 7.59431 29813 ft 526 kts 56°
2026-05-06 06:31 43.77957 7.67688 29867 ft 526 kts 57°
2026-05-06 06:31 43.82438 7.75579 29855 ft 526 kts 43°
2026-05-06 06:32 43.87994 7.82096 29857 ft 526 kts 38°
2026-05-06 06:32 43.93760 7.88330 29852 ft 526 kts 38°
2026-05-06 06:33 43.99155 7.95176 29863 ft 524 kts 44°
2026-05-06 06:33 44.04397 8.02213 29870 ft 523 kts 45°
2026-05-06 06:34 44.09543 8.09267 29855 ft 523 kts 45°
2026-05-06 06:34 44.14710 8.16369 29867 ft 523 kts 45°
2026-05-06 06:35 44.19897 8.23500 29849 ft 523 kts 45°
2026-05-06 06:35 44.25074 8.30614 29855 ft 522 kts 45°
2026-05-06 06:36 44.30236 8.37737 29844 ft 523 kts 45°
2026-05-06 06:36 44.35365 8.44832 29849 ft 522 kts 45°
2026-05-06 06:37 44.40520 8.51981 29841 ft 521 kts 45°
2026-05-06 06:37 44.45665 8.59132 29834 ft 522 kts 45°
2026-05-06 06:38 44.50816 8.66311 29836 ft 522 kts 45°
2026-05-06 06:38 44.55920 8.73444 29810 ft 522 kts 45°
2026-05-06 06:39 44.61050 8.80635 29843 ft 522 kts 45°
2026-05-06 06:39 44.66182 8.87844 29851 ft 521 kts 46°
2026-05-06 06:40 44.71302 8.95059 29850 ft 521 kts 46°
2026-05-06 06:40 44.76377 9.02229 29856 ft 520 kts 46°
2026-05-06 06:41 44.81450 9.09417 29858 ft 521 kts 46°
2026-05-06 06:41 44.86547 9.16656 29823 ft 519 kts 45°
2026-05-06 06:42 44.91624 9.23885 29842 ft 518 kts 46°
2026-05-06 06:42 44.96696 9.31122 29858 ft 519 kts 46°
2026-05-06 06:43 45.01766 9.38378 29858 ft 518 kts 46°
2026-05-06 06:43 45.06778 9.45572 29880 ft 516 kts 46°
2026-05-06 06:44 45.11820 9.52810 29864 ft 516 kts 46°
2026-05-06 06:44 45.16831 9.60095 29866 ft 516 kts 48°
2026-05-06 06:45 45.21440 9.67853 29856 ft 513 kts 52°
2026-05-06 06:45 45.25897 9.75656 29899 ft 512 kts 52°
2026-05-06 06:46 45.30352 9.83566 29902 ft 512 kts 52°
2026-05-06 06:46 45.34796 9.91480 29924 ft 513 kts 53°
2026-05-06 06:47 45.39226 9.99378 29909 ft 512 kts 53°
2026-05-06 06:47 45.43636 10.07255 29912 ft 512 kts 53°
2026-05-06 06:48 45.48072 10.15203 29918 ft 512 kts 53°
2026-05-06 06:48 45.52502 10.23162 29918 ft 513 kts 53°
2026-05-06 06:49 45.56927 10.31132 29904 ft 513 kts 53°
2026-05-06 06:49 45.61323 10.39072 29907 ft 512 kts 53°
2026-05-06 06:50 45.65717 10.47029 29927 ft 513 kts 53°
2026-05-06 06:50 45.70119 10.55030 29934 ft 512 kts 53°
2026-05-06 06:51 45.74512 10.63031 29936 ft 512 kts 53°
2026-05-06 06:51 45.78876 10.71009 29946 ft 511 kts 53°
2026-05-06 06:52 45.83251 10.79021 29951 ft 510 kts 53°
2026-05-06 06:52 45.87613 10.87037 29958 ft 510 kts 54°
2026-05-06 06:53 45.91978 10.95083 29957 ft 510 kts 54°
2026-05-06 06:53 45.96325 11.03114 29948 ft 510 kts 54°
2026-05-06 06:54 46.00648 11.11128 29955 ft 510 kts 54°
2026-05-06 06:54 46.04926 11.19219 29953 ft 509 kts 56°
2026-05-06 06:55 46.08969 11.27585 29947 ft 508 kts 58°
2026-05-06 06:55 46.12936 11.36028 29944 ft 509 kts 58°
2026-05-06 06:56 46.16888 11.44411 29945 ft 509 kts 58°
2026-05-06 06:56 46.20887 11.52843 29942 ft 509 kts 57°
2026-05-06 06:57 46.24894 11.61283 29949 ft 509 kts 58°
2026-05-06 06:57 46.28885 11.69727 29947 ft 509 kts 58°
2026-05-06 06:58 46.32862 11.78195 29954 ft 509 kts 58°
2026-05-06 06:58 46.36810 11.86618 29959 ft 509 kts 58°
2026-05-06 06:59 46.40771 11.95088 29942 ft 507 kts 58°
2026-05-06 06:59 46.44723 12.03549 29943 ft 507 kts 58°
2026-05-06 07:00 46.48664 12.12035 29943 ft 507 kts 58°
2026-05-06 07:00 46.52594 12.20535 29961 ft 507 kts 58°
2026-05-06 07:01 46.56511 12.28974 29989 ft 507 kts 58°
2026-05-06 07:01 46.60435 12.37492 29985 ft 507 kts 58°
2026-05-06 07:02 46.64347 12.46010 29980 ft 507 kts 58°
2026-05-06 07:02 46.68139 12.54651 29965 ft 504 kts 66°
2026-05-06 07:03 46.70187 12.64171 29969 ft 491 kts 89°
2026-05-06 07:03 46.70280 12.74040 29951 ft 488 kts 97°
2026-05-06 07:04 46.69937 12.83897 29961 ft 488 kts 98°
2026-05-06 07:04 46.69544 12.93766 29946 ft 488 kts 98°
2026-05-06 07:05 46.69176 13.03617 29962 ft 487 kts 98°
2026-05-06 07:05 46.68827 13.13418 29945 ft 488 kts 98°
2026-05-06 07:06 46.68586 13.23313 29925 ft 493 kts 88°
2026-05-06 07:06 46.69307 13.28211 29946 ft 498 kts 72°
2026-05-06 07:06 46.70196 13.31300 29938 ft 500 kts 67°
2026-05-06 07:07 46.73346 13.40376 29943 ft 503 kts 64°
2026-05-06 07:07 46.77090 13.50896 29929 ft 503 kts 64°
2026-05-06 07:08 46.80302 13.59974 29929 ft 503 kts 64°
2026-05-06 07:08 46.82958 13.67510 29902 ft 502 kts 64°
2026-05-06 07:09 46.86683 13.78119 29919 ft 502 kts 64°
2026-05-06 07:09 46.89334 13.85683 29929 ft 503 kts 65°
2026-05-06 07:10 46.93016 13.96250 29909 ft 502 kts 65°
2026-05-06 07:10 46.96179 14.05368 29898 ft 503 kts 64°
2026-05-06 07:11 46.98802 14.12944 29931 ft 502 kts 64°
2026-05-06 07:11 47.01953 14.22069 29916 ft 501 kts 64°
2026-05-06 07:12 47.05090 14.31188 29918 ft 501 kts 64°
2026-05-06 07:12 47.08201 14.40266 29917 ft 501 kts 65°
2026-05-06 07:13 47.11218 14.49475 29918 ft 499 kts 72°
2026-05-06 07:13 47.13085 14.59253 29910 ft 496 kts 78°
2026-05-06 07:14 47.14747 14.69048 29912 ft 494 kts 78°
2026-05-06 07:14 47.16398 14.78768 29912 ft 494 kts 78°
2026-05-06 07:15 47.18059 14.88556 29911 ft 494 kts 78°
2026-05-06 07:15 47.19712 14.98336 29808 ft 493 kts 78°
2026-05-06 07:15 47.20537 15.03235 29502 ft 493 kts 77°
2026-05-06 07:16 47.21352 15.08093 29225 ft 495 kts 77°
2026-05-06 07:16 47.22171 15.12980 28939 ft 495 kts 77°
2026-05-06 07:16 47.22979 15.17823 28664 ft 494 kts 77°
2026-05-06 07:16 47.23797 15.22737 28402 ft 493 kts 77°
2026-05-06 07:17 47.24602 15.27583 28083 ft 491 kts 77°
2026-05-06 07:17 47.25670 15.34036 27123 ft 488 kts 78°
2026-05-06 07:17 47.26207 15.37293 26696 ft 485 kts 77°
2026-05-06 07:17 47.26996 15.42090 26038 ft 480 kts 78°
2026-05-06 07:18 47.27778 15.46848 25371 ft 476 kts 78°
2026-05-06 07:18 47.28536 15.51481 24692 ft 473 kts 78°
2026-05-06 07:18 47.29286 15.56076 24026 ft 470 kts 78°
2026-05-06 07:18 47.30046 15.60743 23328 ft 467 kts 78°
2026-05-06 07:19 47.30793 15.65352 22585 ft 464 kts 78°
2026-05-06 07:19 47.31535 15.69936 21905 ft 459 kts 78°
2026-05-06 07:19 47.32266 15.74463 21240 ft 454 kts 78°
2026-05-06 07:19 47.32992 15.78968 20587 ft 449 kts 78°
2026-05-06 07:20 47.33707 15.83425 19903 ft 446 kts 78°
2026-05-06 07:20 47.34416 15.87855 19234 ft 443 kts 78°
2026-05-06 07:20 47.35111 15.92203 18570 ft 439 kts 77°
2026-05-06 07:20 47.35822 15.96563 17864 ft 436 kts 75°
2026-05-06 07:21 47.36994 16.00620 17501 ft 423 kts 57°
2026-05-06 07:21 47.38901 16.03784 17386 ft 409 kts 36°
2026-05-06 07:21 47.41362 16.05819 17222 ft 406 kts 19°
2026-05-06 07:21 47.44014 16.07228 16980 ft 405 kts 16°
2026-05-06 07:22 47.46690 16.08528 16761 ft 404 kts 15°
2026-05-06 07:22 47.49364 16.09822 16542 ft 403 kts 15°
2026-05-06 07:22 47.52023 16.11120 16326 ft 402 kts 15°
2026-05-06 07:22 47.54679 16.12426 16100 ft 402 kts 15°
2026-05-06 07:23 47.57307 16.13725 15878 ft 402 kts 15°
2026-05-06 07:23 47.59925 16.15017 15678 ft 402 kts 15°
2026-05-06 07:23 47.62561 16.16330 15446 ft 399 kts 16°
2026-05-06 07:23 47.65192 16.17648 15228 ft 398 kts 15°
2026-05-06 07:24 47.67787 16.18942 15011 ft 397 kts 16°
2026-05-06 07:24 47.70402 16.20251 14816 ft 396 kts 16°
2026-05-06 07:24 47.73009 16.21564 14614 ft 395 kts 16°
2026-05-06 07:24 47.75525 16.23217 14397 ft 397 kts 30°
2026-05-06 07:25 47.77582 16.25936 14181 ft 398 kts 52°
2026-05-06 07:25 47.79104 16.29361 13971 ft 398 kts 59°
2026-05-06 07:25 47.80474 16.32882 13751 ft 398 kts 60°
2026-05-06 07:25 47.81842 16.36449 13517 ft 396 kts 60°
2026-05-06 07:26 47.83207 16.39995 13296 ft 394 kts 60°
2026-05-06 07:26 47.84575 16.43531 13088 ft 393 kts 60°
2026-05-06 07:26 47.85936 16.47041 12875 ft 391 kts 60°
2026-05-06 07:26 47.87293 16.50535 12659 ft 389 kts 60°
2026-05-06 07:27 47.88644 16.54014 12451 ft 387 kts 60°
2026-05-06 07:27 47.89955 16.57394 12234 ft 385 kts 60°
2026-05-06 07:27 47.91290 16.60839 12027 ft 383 kts 60°
2026-05-06 07:27 47.92604 16.64234 11836 ft 381 kts 61°
2026-05-06 07:28 47.93924 16.67646 11630 ft 379 kts 61°
2026-05-06 07:28 47.95236 16.71044 11420 ft 377 kts 61°
2026-05-06 07:28 47.98109 16.77500 11003 ft 374 kts 43°
2026-05-06 07:29 48.00269 16.79592 10805 ft 370 kts 20°
2026-05-06 07:29 48.02682 16.80281 10641 ft 354 kts 357°
2026-05-06 07:29 48.05020 16.79656 10477 ft 333 kts 337°
2026-05-06 07:29 48.07082 16.78263 10297 ft 318 kts 330°
2026-05-06 07:30 48.09013 16.76763 10112 ft 306 kts 329°
2026-05-06 07:30 48.10866 16.75302 9942 ft 299 kts 329°
2026-05-06 07:30 48.14627 16.72356 9573 ft 300 kts 330°
2026-05-06 07:31 48.16477 16.70918 9408 ft 299 kts 330°
2026-05-06 07:31 48.18319 16.69489 9241 ft 298 kts 330°
2026-05-06 07:31 48.20156 16.68065 9078 ft 297 kts 330°
2026-05-06 07:31 48.22007 16.66693 8857 ft 296 kts 335°
2026-05-06 07:32 48.23945 16.65700 8543 ft 290 kts 342°
2026-05-06 07:32 48.25845 16.64895 8379 ft 278 kts 343°
2026-05-06 07:32 48.27683 16.64135 8132 ft 270 kts 343°
2026-05-06 07:32 48.29452 16.63401 7964 ft 258 kts 343°
2026-05-06 07:33 48.31112 16.62710 7689 ft 244 kts 343°
2026-05-06 07:33 48.32730 16.62032 7178 ft 239 kts 343°
2026-05-06 07:33 48.34319 16.61352 6619 ft 237 kts 340°
2026-05-06 07:33 48.35769 16.60255 6039 ft 232 kts 321°
2026-05-06 07:34 48.36811 16.58453 5416 ft 228 kts 294°
2026-05-06 07:34 48.37192 16.56192 5027 ft 224 kts 272°
2026-05-06 07:34 48.37213 16.53838 4912 ft 226 kts 267°
2026-05-06 07:34 48.37146 16.51477 4968 ft 226 kts 260°
2026-05-06 07:35 48.36456 16.49454 4995 ft 219 kts 219°
2026-05-06 07:35 48.35098 16.48569 5013 ft 219 kts 189°
2026-05-06 07:35 48.33573 16.48615 4948 ft 221 kts 170°
2026-05-06 07:35 48.32086 16.49218 4738 ft 222 kts 162°
2026-05-06 07:36 48.30615 16.49903 4438 ft 221 kts 164°
2026-05-06 07:36 48.29132 16.50528 4111 ft 221 kts 165°
2026-05-06 07:36 48.27664 16.51145 3806 ft 218 kts 165°
2026-05-06 07:36 48.26198 16.51774 3489 ft 219 kts 164°
2026-05-06 07:37 48.24803 16.52369 3210 ft 203 kts 165°
2026-05-06 07:37 48.23505 16.52922 2973 ft 185 kts 165°
2026-05-06 07:37 48.22324 16.53424 2740 ft 169 kts 165°
2026-05-06 07:37 48.21246 16.53884 2503 ft 153 kts 166°
2026-05-06 07:38 48.20261 16.54303 2325 ft 143 kts 165°
2026-05-06 07:38 48.19308 16.54707 2127 ft 142 kts 165°
2026-05-06 07:38 48.18357 16.55110 1937 ft 141 kts 165°
2026-05-06 07:38 48.17418 16.55510 1748 ft 140 kts 165°
2026-05-06 07:39 48.16476 16.55910 1554 ft 140 kts 165°
2026-05-06 07:39 48.15550 16.56303 1372 ft 140 kts 165°
2026-05-06 07:39 48.14612 16.56703 1183 ft 140 kts 164°
2026-05-06 07:39 48.13670 16.57107 1020 ft 141 kts 165°
2026-05-06 07:40 48.12734 16.57501 788 ft 138 kts 165°
2026-05-06 07:40 48.11821 16.57882 632 ft 135 kts 164°
2026-05-06 07:40 48.11019 16.58224 621 ft 88 kts 164°
2026-05-06 07:40 48.10642 16.58259 613 ft 33 kts 194°
2026-05-06 07:41 48.10408 16.58165 613 ft 34 kts 195°
2026-05-06 07:41 48.10343 16.58133 618 ft 0 kts 226°
2026-05-06 07:41 48.10342 16.58128 618 ft 1 kts 245°
2026-05-06 07:41 48.10351 16.58096 618 ft 8 kts 318°
2026-05-06 07:42 48.10394 16.58070 623 ft 6 kts 341°
2026-05-06 07:42 48.10438 16.58050 620 ft 8 kts 344°
2026-05-06 07:42 48.10501 16.58024 623 ft 11 kts 344°
2026-05-06 07:42 48.10583 16.57989 620 ft 15 kts 344°
2026-05-06 07:43 48.10706 16.57937 624 ft 22 kts 344°
2026-05-06 07:43 48.10859 16.57873 625 ft 23 kts 344°
2026-05-06 07:43 48.11019 16.57806 613 ft 24 kts 344°
2026-05-06 07:43 48.11163 16.57695 620 ft 24 kts 302°
2026-05-06 07:44 48.11235 16.57476 624 ft 23 kts 296°
2026-05-06 07:44 48.11329 16.57340 615 ft 16 kts 21°
2026-05-06 07:44 48.11430 16.57364 627 ft 15 kts 317°
2026-05-06 07:44 48.11487 16.57200 620 ft 21 kts 296°
2026-05-06 07:45 48.11557 16.56984 620 ft 25 kts 295°
2026-05-06 07:45 48.11633 16.56761 623 ft 21 kts 297°
2026-05-06 07:45 48.11686 16.56668 628 ft 7 kts 11°
2026-05-06 07:45 48.11734 16.56700 616 ft 8 kts 25°
2026-05-06 07:46 48.11745 16.56708 624 ft 0 kts 25°